Вернуться в каталог

STARLINK-5675

АктивенСвязьVLEO
NORAD 55340·PAYLOAD·🇺🇸 United States

Запущен Jan 26, 2023 с Cape Canaveral Space Force Station

Loading…

Ближайшие Пролёты (ближайшие 24 часа)

TLE

СвежийSource: CelesTrak SupGP

Эпоха: Sep 14, 2026, 21:19 UTC

1 55340C 23013K   26257.88868056 -.00036555  00000+0 -13238-2 0  2578
2 55340  43.0020 314.6802 0001870 270.4287  19.7577 15.27600535    19

Отслеживайте STARLINK-5675 в реальном времени с AllMySat

Download on the App Store